Weather History for Winchester, TN

Change the Weather History Date:

Sunday, April 7, 2013

  Actual Average (KTHA) Record (KTHA)
Temperature  
Mean Temperature 60 °F -  
Max Temperature 73 °F 68 °F 69 °F (2013)
Min Temperature 46 °F 44 °F 44 °F (2014)
Degree Days  
Heating Degree Days 6    
Growing Degree Days 10 (Base 50)    
Moisture  
Dew Point 43 °F    
Average Humidity 53    
Maximum Humidity 77    
Minimum Humidity 33    
Precipitation  
Precipitation 0.00 in - - ()
Sea Level Pressure  
Sea Level Pressure 30.08 in    
Wind  
Wind Speed 7 mph (South)    
Max Wind Speed 14 mph    
Max Gust Speed -    
Visibility 10 miles    
Events      
Averages and records for this station are not official NWS values.
T = Trace of Precipitation, MM = Missing Value Source: NWS Daily Summary

Daily Weather History Graph

Daily Weather History Graph

Search for Another Location

Airport:

Trip Planner

Search our weather history database for the weather conditions in past years. The results will help you decide how hot, cold, wet, or windy it might be!

Date:

Astronomy

Apr. 07, 2013 Rise Set
Actual Time 7:22 AM EDT 8:10 PM EDT
Civil Twilight 6:56 AM EDT 8:36 PM EDT
Nautical Twilight 6:26 AM EDT 9:07 PM EDT
Astronomical Twilight 5:55 AM EDT 9:38 PM EDT
Moon 5:33 AM EDT (4/7) 5:46 PM EDT (4/7)
Length of Visible Light 13h 39m
Length of Day
12h 48m
Waning Crescent, 8% of the Moon is Illuminated
Apr 7
Waning Crescent
Apr 10
New
Apr 18
First Quarter
Apr 25
Full
May 2
Last Quarter

Hourly Weather History & Observations

Time (EDT) Temp. Dew Point Humidity Pressure Visibility Wind Dir Wind Speed Gust Speed Precip Events Conditions
12:15 AM 60.8 °F 37.4 °F 42% 30.07 in 10.0 mi South 4.6 mph - N/A   Clear
12:35 AM 59.0 °F 37.4 °F 45% 30.08 in 10.0 mi South 4.6 mph - N/A   Clear
12:55 AM 57.2 °F 37.4 °F 48% 30.08 in 10.0 mi SSE 5.8 mph - N/A   Clear
1:35 AM 53.6 °F 39.2 °F 58% 30.08 in 10.0 mi SSE 8.1 mph - N/A   Clear
1:55 AM 53.6 °F 39.2 °F 58% 30.08 in 10.0 mi SSE 6.9 mph - N/A   Clear
2:15 AM 53.6 °F 39.2 °F 58% 30.08 in 10.0 mi SSE 8.1 mph - N/A   Clear
2:35 AM 53.6 °F 39.2 °F 58% 30.08 in 10.0 mi SSE 6.9 mph - N/A   Clear
2:55 AM 51.8 °F 39.2 °F 62% 30.07 in 10.0 mi SSE 5.8 mph - N/A   Clear
3:15 AM 51.8 °F 39.2 °F 62% 30.07 in 10.0 mi SSE 8.1 mph - N/A   Clear
3:35 AM 53.6 °F 39.2 °F 58% 30.06 in 10.0 mi SSE 10.4 mph - N/A   Clear
3:55 AM 55.4 °F 39.2 °F 54% 30.06 in 10.0 mi SSE 11.5 mph - N/A   Clear
4:15 AM 55.4 °F 39.2 °F 54% 30.06 in 10.0 mi South 9.2 mph - N/A   Clear
4:35 AM 55.4 °F 39.2 °F 54% 30.07 in 10.0 mi South 10.4 mph - N/A   Clear
4:55 AM 55.4 °F 39.2 °F 54% 30.07 in 10.0 mi South 6.9 mph - N/A   Clear
5:15 AM 55.4 °F 39.2 °F 54% 30.08 in 10.0 mi South 4.6 mph - N/A   Clear
5:35 AM 55.4 °F 39.2 °F 54% 30.09 in 10.0 mi South 4.6 mph - N/A   Clear
5:55 AM 55.4 °F 39.2 °F 54% 30.09 in 10.0 mi South 5.8 mph - N/A   Clear
6:15 AM 51.8 °F 39.2 °F 62% 30.09 in 10.0 mi SSE 5.8 mph - N/A   Clear
6:35 AM 51.8 °F 39.2 °F 62% 30.10 in 10.0 mi SSE 5.8 mph - N/A   Clear
6:55 AM 53.6 °F 39.2 °F 58% 30.10 in 10.0 mi South 5.8 mph - N/A   Clear
7:15 AM 48.2 °F 39.2 °F 71% 30.11 in 10.0 mi Calm Calm - N/A   Clear
7:35 AM 46.4 °F 39.2 °F 76% 30.11 in 10.0 mi Calm Calm - N/A   Clear
7:55 AM 48.2 °F 39.2 °F 71% 30.12 in 10.0 mi SE 4.6 mph - N/A   Clear
8:15 AM 51.8 °F 42.8 °F 71% 30.13 in 10.0 mi Calm Calm - N/A   Clear
8:35 AM 53.6 °F 44.6 °F 72% 30.13 in 10.0 mi SE 4.6 mph - N/A   Clear
8:55 AM 55.4 °F 44.6 °F 67% 30.14 in 10.0 mi SE 4.6 mph - N/A   Clear
9:15 AM 57.2 °F 44.6 °F 63% 30.14 in 10.0 mi SE 4.6 mph - N/A   Clear
9:35 AM 60.8 °F 46.4 °F 59% 30.14 in 10.0 mi SSE 5.8 mph - N/A   Clear
9:55 AM 62.6 °F 46.4 °F 55% 30.14 in 10.0 mi South 5.8 mph - N/A   Clear
10:15 AM 64.4 °F 46.4 °F 52% 30.14 in 10.0 mi SW 9.2 mph - N/A   Clear
10:35 AM 64.4 °F 44.6 °F 49% 30.14 in 10.0 mi SSW 5.8 mph - N/A   Clear
10:55 AM 66.2 °F 44.6 °F 46% 30.14 in 10.0 mi SW 6.9 mph - N/A   Clear
11:15 AM 66.2 °F 44.6 °F 46% 30.14 in 10.0 mi WSW 10.4 mph - N/A   Clear
11:55 AM 68.0 °F 46.4 °F 46% 30.14 in 10.0 mi SSW 8.1 mph - N/A   Clear
12:15 PM 68.0 °F 46.4 °F 46% 30.13 in 10.0 mi South 8.1 mph - N/A   Clear
12:35 PM 69.8 °F 46.4 °F 43% 30.13 in 10.0 mi South 12.7 mph - N/A   Clear
12:55 PM 69.8 °F 44.6 °F 40% 30.12 in 10.0 mi SSW 9.2 mph - N/A   Clear
1:15 PM 69.8 °F 44.6 °F 40% 30.11 in 10.0 mi SSW 12.7 mph - N/A   Clear
1:35 PM 71.6 °F 46.4 °F 41% 30.10 in 10.0 mi South 11.5 mph - N/A   Partly Cloudy
1:55 PM 69.8 °F 44.6 °F 40% 30.10 in 10.0 mi South 11.5 mph - N/A   Partly Cloudy
2:15 PM 69.8 °F 44.6 °F 40% 30.09 in 10.0 mi SSW 8.1 mph - N/A   Partly Cloudy
2:35 PM 69.8 °F 44.6 °F 40% 30.08 in 10.0 mi South 6.9 mph - N/A   Clear
2:55 PM 69.8 °F 44.6 °F 40% 30.08 in 10.0 mi SW 12.7 mph - N/A   Clear
3:15 PM 71.6 °F 44.6 °F 38% 30.08 in 10.0 mi SW 13.8 mph - N/A   Clear
3:35 PM 71.6 °F 44.6 °F 38% 30.08 in 10.0 mi WSW 9.2 mph - N/A   Clear
3:55 PM 71.6 °F 44.6 °F 38% 30.07 in 10.0 mi SSW 11.5 mph - N/A   Clear
4:15 PM 71.6 °F 44.6 °F 38% 30.06 in 10.0 mi SSW 9.2 mph - N/A   Clear
4:35 PM 71.6 °F 42.8 °F 35% 30.05 in 10.0 mi SW 9.2 mph - N/A   Clear
4:55 PM 73.4 °F 42.8 °F 33% 30.05 in 10.0 mi SW 10.4 mph - N/A   Clear
5:15 PM 73.4 °F 44.6 °F 36% 30.04 in 10.0 mi SSW 8.1 mph - N/A   Scattered Clouds
5:35 PM 71.6 °F 46.4 °F 41% 30.04 in 10.0 mi South 8.1 mph - N/A   Scattered Clouds
5:55 PM 73.4 °F 44.6 °F 36% 30.04 in 10.0 mi South 8.1 mph - N/A   Partly Cloudy
6:15 PM 73.4 °F 44.6 °F 36% 30.04 in 10.0 mi South 9.2 mph - N/A   Clear
6:35 PM 71.6 °F 44.6 °F 38% 30.04 in 10.0 mi South 10.4 mph - N/A   Clear
6:55 PM 71.6 °F 44.6 °F 38% 30.04 in 10.0 mi South 6.9 mph - N/A   Clear
7:15 PM 69.8 °F 44.6 °F 40% 30.04 in 10.0 mi South 9.2 mph - N/A   Clear
7:35 PM 69.8 °F 46.4 °F 43% 30.03 in 10.0 mi South 8.1 mph - N/A   Clear
7:55 PM 66.2 °F 46.4 °F 49% 30.03 in 10.0 mi South 6.9 mph - N/A   Clear
8:15 PM 64.4 °F 46.4 °F 52% 30.03 in 10.0 mi SSE 5.8 mph - N/A   Clear
8:35 PM 64.4 °F 46.4 °F 52% 30.03 in 10.0 mi SSE 4.6 mph - N/A   Clear
8:55 PM 62.6 °F 46.4 °F 55% 30.03 in 10.0 mi SSE 4.6 mph - N/A   Clear
9:15 PM 60.8 °F 46.4 °F 59% 30.03 in 10.0 mi SSE 3.5 mph - N/A   Clear
9:35 PM 59.0 °F 46.4 °F 63% 30.03 in 10.0 mi Calm Calm - N/A   Clear
9:55 PM 59.0 °F 46.4 °F 63% 30.04 in 10.0 mi SSE 3.5 mph - N/A   Clear
10:15 PM 57.2 °F 46.4 °F 67% 30.05 in 10.0 mi Calm Calm - N/A   Clear
10:35 PM 53.6 °F 46.4 °F 77% 30.06 in 7.0 mi SE 3.5 mph - N/A   Clear
10:55 PM 55.4 °F 46.4 °F 72% 30.05 in 10.0 mi SE 4.6 mph - N/A   Clear
11:15 PM 53.6 °F 46.4 °F 77% 30.05 in 10.0 mi SE 4.6 mph - N/A   Clear
11:35 PM 53.6 °F 46.4 °F 77% 30.05 in 10.0 mi SSE 3.5 mph - N/A   Clear
11:55 PM 53.6 °F 46.4 °F 77% 30.05 in 10.0 mi SSE 6.9 mph - N/A   Clear